Regional Weather Roundup
Issued by NWS Mt. Holly, NJ

Home | Current Version | Previous Version | Text Only | Print | Product List | Glossary On
Versions: 1 2 3 4 5 6 7 8 9 10 11 12 13 14 15 16 17 18 19 20 21 22 23 24 25 26 27 28
000
ASUS41 KPHI 300012
RWRPHI

REGIONAL WEATHER ROUNDUP
NATIONAL WEATHER SERVICE MOUNT HOLLY NJ
800 PM EDT FRI APR 29 2016

NOTE:  "FAIR" INDICATES FEW OR NO CLOUDS BELOW 12,000 FEET WITH NO
SIGNIFICANT WEATHER AND/OR OBSTRUCTIONS TO VISIBILITY.

 * = STATION DOES NOT REPORT PRECIPITATION (E.G. RAIN, SNOW, ETC.)
        OR FOG.

NJZ015>026-300100-
SOUTHERN NEW JERSEY

CITY           SKY/WX    TMP DP  RH WIND       PRES   REMARKS
POMONA         CLOUDY    48  44  86 NE13      30.06F
6HR MIN TEMP:  48; 6HR MAX TEMP:  50; 6HR PCP:  0.02;

WILDWOOD*      CLOUDY    48  45  87 NE8       30.06R
MILLVILLE      CLOUDY    49  45  86 NE9       30.06R
WRIGHTSTOWN    CLOUDY    45  42  87 NE6       30.07R
MOUNT HOLLY    CLOUDY    47  42  83 E6        30.09R
TRENTON        CLOUDY    47  36  65 SE8       30.09R
6HR MIN TEMP:  47; 6HR MAX TEMP:  52; 6HR PCP: TRACE;


$$
NJZ001>014-300100-
NORTHERN NEW JERSEY

CITY           SKY/WX    TMP DP  RH WIND       PRES   REMARKS
SUSSEX         LGT RAIN  46  40  79 W3        30.10R
ANDOVER*         N/A     44  40  85 CALM      30.09R
MORRISTOWN     CLOUDY    48  37  66 S5        30.10R
NEWARK         CLOUDY    50  36  58 E9        30.09S
TETERBORO      RAIN      50  39  66 NE3       30.08S
CALDWELL       CLOUDY    49  39  68 SE5       30.09S
SOMERVILLE     CLOUDY    47  40  76 CALM      30.08R
ALLAIRE*       CLOUDY    45  43  93 E8        30.10S
TOMS RIVER*    CLOUDY    45  41  87 E6        30.09R

$$
PAZ043-044-047-054-055-060>062-066>071-300100-
EASTERN PENNSYLVANIA

CITY           SKY/WX    TMP DP  RH WIND       PRES   REMARKS
PHILADELPHIA   CLOUDY    50  42  74 NE6       30.09R
6HR MIN TEMP:  50; 6HR MAX TEMP:  53; 6HR PCP: TRACE;

NORTH PHILA    CLOUDY    49  40  71 E10       30.10S
BLUE BELL*     CLOUDY    46  41  81 SE5       30.08R
DOYLESTOWN     CLOUDY    46  40  79 CALM      30.08R
QUAKERTOWN*    CLOUDY    46  41  81 E5        30.08S
PERKASIE*      CLOUDY    46  39  76 CALM      30.09R
POTTSTOWN      CLOUDY    48  42  80 CALM      30.09R
LANCASTER      CLOUDY    49  43  80 SE3       30.07R
COATESVILLE    CLOUDY    46  46 100 E6G13     30.08R
READING        CLOUDY    49  40  71 SE5       30.08R
6HR MIN TEMP:  49; 6HR MAX TEMP:  52;

ALLENTOWN      CLOUDY    49  41  74 E5        30.08R
6HR MIN TEMP:  48; 6HR MAX TEMP:  54; 6HR PCP:  0.03;

MOUNT POCONO   LGT RAIN  38  37  97 E3        30.06R FOG
6HR MIN TEMP:  39; 6HR MAX TEMP:  48; 6HR PCP:  0.02;

HAZLETON       CLOUDY    41  41 100 E8        30.09R FOG
LEHIGHTON      CLOUDY    46  39  76 E3        30.09R
WILKES BARRE   CLOUDY    45  41  86 SW3       30.09R

$$
DEZALL-MDZ008-012-015-019-020-300100-
DELAWARE AND EASTERN MARYLAND

CITY           SKY/WX    TMP DP  RH WIND       PRES   REMARKS
WILMINGTON     CLOUDY    49  45  86 E7        30.08S FOG
6HR MIN TEMP:  49; 6HR MAX TEMP:  52; 6HR PCP: TRACE;

DOVER          CLOUDY    50  50 100 NE7       30.06R
GEORGETOWN     CLOUDY    50  48  93 NE8       30.05R FOG
6HR MIN TEMP:  50; 6HR MAX TEMP:  52;

EASTON         CLOUDY   N/A N/A N/A E7        30.08R HAZE
ABERDEEN       CLOUDY    52  48  87 E6        30.07R
PATUXENT       DRIZZLE   53  50  89 NE5       30.04R FOG
OCEAN CITY     CLOUDY    50  48  93 NE12      30.04R FOG
WALLOPS ISLAND CLOUDY    53  48  83 N8        30.03R
CAMBRIDGE      CLOUDY    50  48  93 NE6       30.04R
SALISBURY      CLOUDY    51  49  92 NE9       30.03R

$$
PAZ001-021-NYZ056-072-MDZ011-DCZ001-300100-
OTHER NEARBY LOCATIONS

CITY           SKY/WX    TMP DP  RH WIND       PRES   REMARKS
HARRISBURG     DRIZZLE   49  46  90 SE6       30.06R FOG
STATE COLLEGE  LGT RAIN  45  45 100 NE3       30.05R VSB 1
WILLIAMSPORT   RAIN      47  45  93 CALM      30.09R FOG
BINGHAMTON     LGT RAIN  42  41  96 SE3       30.07R
NEW YORK CITY  LGT RAIN  47  40  76 VRB5      30.11S
BALTIMORE      DRIZZLE   52  49  89 NE5       30.05R
WASHINGTON DC  CLOUDY    53  50  89 NE8       30.06R

$$




USA.gov is the U.S. government's official web portal to all federal, state and local government web resources and services.